Tracking 25195 objects as of 20-Jan-2022
HD Live streaming from Space Station
objects crossing your sky now

STARLINK-2109

Track STARLINK-2109 now!
10-day predictions
STARLINK-2109 is classified as:


NORAD ID: 47388
Int'l Code: 2021-005AR
Perigee: 553.2 km
Apogee: 555.5 km
Inclination: 53.1 °
Period: 95.6 minutes
Semi major axis: 6925 km
RCS: Unknown
Launch date: January 20, 2021
Source: United States (US)
Launch site: AIR FORCE EASTERN TEST RANGE (AFETR)
aabbcc
Your satellite tracking list
Your tracking list is empty




NASA's NSSDC Master Catalog

Two Line Element Set (TLE):
1 47388U 21005AR  22019.35308469 -.00001648  00000-0 -91780-4 0  9990
2 47388  53.0570   1.7939 0001716  55.6809 304.4342 15.06397399 56350
Source of the keplerian elements: AFSPC